This demonstration page uses our WeatherBlox Daily Observations layout. Learn more.

Left ArrowRight Arrow

Hourly Observations for July 21, 2016

Temp ( °F °C ) Dew Point ( °F °C ) Humidity (%) Winds ( mph kmh ) Pressure ( in mb ) Visibility ( mi km ) Precip ( " mm )
12:53 am 00:53 Clear 81 27.2 67 19.4 62 62 SSW 5 7 30.11 1020 10 16 0.00 0.00
1:53 am 01:53 Clear 79 26.1 68 20 69 69 Calm 30.10 1019 10 16 0.00 0.00
2:53 am 02:53 Clear 75 23.9 69 20.6 82 82 Calm 30.09 1019 10 16 0.00 0.00
3:53 am 03:53 Clear 75 23.9 69 20.6 82 82 NNE 5 7 30.09 1019 10 16 0.00 0.00
4:53 am 04:53 Clear 75 23.9 69 20.6 82 82 Calm 30.09 1019 10 16 0.00 0.00
5:53 am 05:53 Clear 73 22.8 69 20.6 87 87 Calm 30.09 1019 10 16 0.00 0.00
6:53 am 06:53 Sunny 74 23.3 69 20.6 85 85 Calm 30.11 1020 10 16 0.00 0.00
7:53 am 07:53 Sunny 76 24.4 69 20.6 79 79 Calm 30.14 1021 10 16 0.00 0.00
8:53 am 08:53 Sunny 78 25.6 70 21.1 76 76 N 3 6 30.15 1021 10 16 0.00 0.00
9:53 am 09:53 Sunny 80 26.7 70 21.1 71 71 ENE 5 7 30.16 1021 10 16 0.00 0.00
10:53 am 10:53 Sunny 84 28.9 71 21.7 65 65 VRB 5 7 30.16 1021 10 16 0.00 0.00
11:53 am 11:53 Sunny 86 30 71 21.7 61 61 E 5 7 30.15 1021 10 16 0.00 0.00
12:53 pm 12:53 Sunny 90 32.2 73 22.8 58 58 SE 7 11 30.12 1020 10 16 0.00 0.00
1:53 pm 13:53 Sunny 93 33.9 71 21.7 49 49 VRB 3 6 30.10 1019 10 16 0.00 0.00
2:53 pm 14:53 Partly Cloudy 93 33.9 69 20.6 46 46 SSE 9 15 30.06 1018 10 16 0.00 0.00
3:41 pm 15:41 Mostly Cloudy with Nearby Thunderstorms 87 30.6 68 20 53 53 WSW 23 37 30.09 1019 10 16 0.00 0.00
3:53 pm 15:53 Mostly Cloudy with Nearby Thunderstorms 84 28.9 65 18.3 53 53 WSW 12 19 30.09 1019 10 16 0.00 0.00
4:53 pm 16:53 Mostly Cloudy with Nearby Thunderstorms 84 28.9 65 18.3 53 53 W 5 7 30.06 1018 10 16 0.00 0.03
5:53 pm 17:53 Mostly Sunny 79 26.1 69 20.6 72 72 NE 10 17 30.07 1018 10 16 0.00 0.03
6:53 pm 18:53 Sunny 83 28.3 69 20.6 63 63 VRB 6 9 30.07 1018 10 16 0.00 0.03
7:53 pm 19:53 Sunny 82 27.8 68 20 63 63 E 7 11 30.08 1019 10 16 0.00 0.00
8:53 pm 20:53 Clear 79 26.1 68 20 69 69 Calm 30.10 1019 10 16 0.00 0.00
9:53 pm 21:53 Clear 78 25.6 68 20 71 71 SW 6 9 30.11 1020 10 16 0.00 0.00
10:53 pm 22:53 Mostly Clear 77 25 68 20 74 74 SSW 6 9 30.12 1020 10 16 0.00 0.00
11:53 pm 23:53 Clear 75 24 68 20 78 78 SSE 3 6 30.12 1020 10 16 0.00 0.00

Powered by AerisWeather